Theta_e
325 327 328 329 331 332 333 334 334 337 337 338 337 336 337 337 339 339 342 344 342 341 340 339 337 338 338 338 339 341 341 342 342 343 340 339 340 338 338 337 338 338 337 337 337 335 337 336 337 335 336 335 335 334 335 335 336 335 334 334 333 332 332 335 334 335 332 333 336 335 338 336 337 338 337 338 337 338 339 338 336 337 337 339 342
326 327 329 330 329 331 332 332 332 332 333 334 335 337 338 338 338 339 340 341 340 341 341 341 342 339 338 336 336 337 338 338 338 341 339 338 340 339 339 338 338 338 338 338 338 337 336 335 335 335 336 335 335 335 334 334 334 334 333 331 332 330 330 331 333 332 328 324 325 328 331 334 337 338 335 334 336 339 339 338 338 334 333 337 341
323 325 327 327 328 327 329 330 330 330 331 331 333 334 335 336 336 337 338 339 338 338 339 338 341 344 341 338 337 336 339 341 338 339 339 337 339 338 338 338 338 336 337 337 337 336 336 335 334 335 336 335 334 334 334 332 333 332 332 329 328 331 330 333 333 334 327 328 328 324 320 322 332 332 335 334 334 335 339 337 337 335 334 336 338
321 323 324 325 327 326 327 328 329 329 328 330 330 331 332 333 334 336 338 338 338 338 339 340 340 341 342 342 342 340 337 339 341 339 339 337 337 338 338 337 336 335 335 334 335 336 336 335 335 334 335 336 334 333 333 333 334 334 333 332 331 327 327 328 333 334 332 327 319 319 322 322 317 324 330 333 333 334 333 333 335 335 337 337 337
321 322 323 324 322 322 324 326 328 328 328 329 330 330 330 332 333 334 335 336 338 338 339 339 340 341 342 342 343 341 341 337 335 335 336 336 336 337 337 337 336 335 335 335 334 334 335 336 335 336 335 335 334 332 333 333 333 333 333 332 331 328 325 328 331 332 332 332 327 321 317 315 316 321 327 329 332 329 329 330 333 333 335 337 337
320 320 321 321 322 323 324 325 325 327 328 329 330 330 331 330 333 333 334 334 334 335 336 336 335 338 338 336 335 334 332 331 330 332 332 332 333 339 338 336 336 336 335 335 333 333 334 335 336 335 334 335 335 334 334 334 334 332 332 332 331 331 327 324 325 332 331 331 331 331 330 322 319 321 321 317 332 331 330 328 330 332 334 335 337
321 321 321 321 322 322 323 323 324 325 328 330 331 331 330 330 331 331 331 331 332 332 333 335 334 336 336 335 333 332 332 334 337 338 336 334 336 337 337 339 337 335 337 335 335 334 334 335 335 335 335 335 335 334 333 334 331 330 332 330 330 330 329 323 324 327 331 330 329 329 330 330 328 324 318 321 320 327 329 327 328 329 331 332 333
318 319 320 321 322 322 322 322 323 324 328 330 330 330 330 330 330 330 331 331 331 332 332 333 334 336 336 334 333 329 329 334 338 339 339 338 336 338 338 338 339 338 336 336 335 334 334 334 335 335 333 334 332 332 333 333 333 333 333 333 332 329 329 325 324 325 323 326 328 328 328 326 325 327 328 323 319 319 322 325 328 328 329 329 330
318 318 319 320 320 321 322 322 324 325 327 328 329 330 330 330 330 330 330 331 331 331 331 331 332 333 333 333 332 333 331 329 331 333 334 337 338 338 339 340 339 340 338 336 336 333 332 332 333 334 333 333 333 333 333 333 334 334 333 332 330 330 328 328 326 324 324 325 325 324 324 324 323 324 325 327 322 318 317 319 322 325 328 327 330
317 318 319 319 320 321 322 323 323 324 326 327 328 328 329 330 330 329 329 329 330 331 331 331 331 330 329 330 330 330 332 333 333 332 331 331 331 336 340 339 338 339 340 338 337 334 333 333 332 332 333 333 332 332 333 333 334 334 334 333 332 330 329 326 326 327 326 327 325 327 323 322 321 321 322 322 322 323 317 317 321 321 320 323 327
316 316 318 319 320 320 321 321 323 324 325 326 326 326 327 328 328 328 329 330 330 330 331 330 330 329 328 328 328 328 329 329 329 330 331 329 330 329 331 332 337 338 338 340 338 336 336 335 334 333 334 334 333 333 332 332 333 333 334 333 332 330 327 327 326 327 326 326 324 323 323 323 322 319 320 321 321 321 319 318 320 320 319 321 324
315 316 316 318 319 319 320 320 321 323 324 324 325 325 326 325 326 326 328 329 329 329 330 329 328 328 329 329 328 328 328 327 327 326 329 327 328 329 331 330 330 332 337 337 339 338 337 336 336 336 333 334 333 335 334 333 333 333 332 332 332 330 330 328 327 326 325 325 324 324 323 324 324 322 321 323 322 321 321 319 318 319 319 320 322
314 315 316 316 316 317 317 319 320 321 321 323 323 325 325 325 325 324 325 327 328 329 328 329 328 328 328 328 328 328 328 328 328 327 328 327 329 329 326 325 330 328 329 330 333 335 338 338 337 336 335 335 335 334 335 334 334 332 332 332 331 330 328 329 326 328 327 325 324 325 323 322 321 321 323 323 322 322 323 317 317 320 318 318 320
313 314 314 315 315 315 317 318 319 320 321 322 322 323 324 324 324 323 323 325 326 326 326 326 327 328 329 328 328 328 327 328 327 327 326 326 326 327 327 326 325 326 328 330 331 332 334 336 337 337 335 337 336 336 336 335 334 331 331 331 330 331 330 329 328 328 328 328 328 325 324 321 322 324 324 322 322 320 316 316 317 320 319 317 319
313 313 313 314 315 316 317 318 318 319 320 320 320 322 322 322 322 322 322 323 324 324 324 325 325 326 326 326 327 327 326 326 326 327 328 327 327 327 326 326 325 325 326 327 329 329 333 334 334 333 334 334 337 336 335 335 335 333 331 331 331 331 330 329 328 328 327 326 327 325 324 323 324 323 322 322 321 321 321 320 318 316 317 315 316
312 313 314 315 316 316 317 318 318 318 318 318 319 321 322 321 322 322 322 322 323 323 323 324 324 325 326 326 326 326 326 326 326 326 327 329 331 330 327 327 327 326 326 326 327 329 330 331 331 332 333 333 334 336 336 334 334 333 331 330 330 330 330 330 328 328 328 327 327 325 323 321 324 323 323 322 321 322 322 323 322 319 315 313 315
313 313 314 314 314 315 315 316 317 317 316 317 319 321 321 321 320 321 321 322 322 322 323 323 324 324 324 324 323 324 324 324 324 325 326 327 328 329 329 329 330 331 330 328 326 328 330 330 331 331 329 332 332 334 334 334 334 333 332 330 330 330 330 328 328 327 328 327 325 324 323 323 322 324 323 323 323 323 321 321 320 317 318 313 313
312 313 314 314 313 314 315 315 316 316 316 317 319 320 320 320 320 320 320 320 321 321 321 322 321 321 321 322 322 322 321 322 323 323 325 326 326 326 326 326 327 327 327 327 327 327 329 329 329 328 329 332 332 333 333 333 333 332 332 331 331 331 329 329 328 327 327 327 325 324 323 322 323 323 322 323 324 322 321 321 319 320 319 316 314
312 313 313 312 313 314 314 315 314 315 316 316 316 318 317 319 317 318 318 320 320 320 320 321 321 320 320 320 321 320 320 321 321 323 324 323 324 324 325 325 327 327 326 326 326 326 327 327 327 327 328 330 332 332 332 331 331 330 331 330 331 330 329 327 328 327 326 325 324 323 323 322 323 323 323 322 323 322 320 320 319 320 319 318 317
311 313 312 312 313 313 313 314 313 314 313 314 316 317 316 317 316 317 318 319 319 319 319 319 319 319 319 320 320 319 320 320 321 322 321 321 321 321 322 323 324 325 326 326 325 325 325 326 326 326 328 330 329 328 330 328 331 327 329 329 328 328 326 325 325 326 324 324 323 322 322 321 322 321 322 321 320 321 321 318 319 319 318 319 318
312 312 313 312 313 313 313 314 313 314 314 314 314 315 315 315 315 317 318 318 318 318 318 318 319 318 318 318 318 319 320 319 320 321 321 321 321 321 322 323 322 324 325 325 324 325 325 326 325 326 326 328 328 329 329 329 326 326 328 326 326 325 324 324 325 325 323 323 322 321 320 321 322 321 320 320 319 318 319 318 319 318 317 319 317
313 313 313 313 313 313 313 313 314 314 313 312 313 314 313 314 315 316 316 315 316 316 315 316 317 317 317 317 318 319 318 318 320 320 320 320 320 320 321 320 321 322 323 323 323 324 325 325 325 326 326 327 327 326 324 324 323 322 324 325 326 323 323 323 323 322 322 321 322 320 319 319 321 318 320 318 317 317 317 316 315 315 315 316 318
313 313 314 313 313 313 313 312 313 313 313 314 314 313 313 314 315 315 314 314 315 315 315 315 315 316 316 317 317 317 316 317 317 318 319 319 319 319 319 318 318 319 321 322 322 323 323 324 324 326 326 326 327 326 327 325 323 323 322 324 324 324 321 319 319 320 319 319 319 319 318 319 321 319 320 319 318 317 316 315 316 315 316 316 316
313 314 314 314 313 314 313 312 312 312 313 313 314 313 313 313 313 314 314 315 315 315 315 314 315 315 316 316 315 315 316 315 315 316 318 319 318 318 318 317 317 317 316 320 321 322 322 323 323 323 325 325 325 326 326 325 322 322 322 321 323 322 321 319 320 320 320 317 318 318 318 320 320 319 319 317 318 317 317 316 316 316 315 316 316
313 313 314 313 312 312 311 311 311 311 312 314 313 312 312 313 314 313 314 315 315 315 314 314 314 315 315 315 315 315 314 315 315 314 316 318 318 318 318 316 316 315 315 316 319 320 322 322 323 323 324 324 324 325 324 323 322 323 322 321 321 321 321 320 321 319 317 316 317 317 317 320 320 318 319 316 317 316 315 315 315 315 314 316 315
312 313 313 313 312 311 312 312 311 312 311 311 312 312 312 312 314 315 315 314 313 314 313 313 314 314 314 314 314 314 313 314 314 314 315 317 318 317 317 316 314 314 315 315 315 318 319 320 322 323 324 324 324 324 324 323 322 321 321 321 320 320 319 319 319 318 316 315 315 315 316 319 319 317 317 317 317 317 315 315 315 315 314 315 316
312 312 313 313 313 313 312 313 313 313 313 313 312 312 312 312 314 314 314 314 314 314 313 312 313 313 313 313 313 313 313 315 315 314 315 316 316 316 315 314 315 314 314 314 314 315 319 319 320 323 324 324 323 323 323 323 321 320 320 319 319 319 318 319 318 317 315 315 315 314 316 316 315 315 317 317 317 317 316 315 316 315 315 315 315
312 312 312 312 313 313 313 313 313 312 313 313 313 312 312 313 313 313 312 313 314 313 312 312 312 312 312 312 312 313 313 314 314 314 314 315 315 315 315 315 314 314 313 313 313 313 317 319 320 321 324 325 324 323 322 320 319 319 319 317 316 317 317 317 317 316 315 315 315 315 314 314 314 314 315 317 317 316 316 315 316 316 315 315 314
310 311 312 312 311 312 313 313 313 313 313 313 312 312 313 313 312 312 312 312 313 312 311 311 311 311 311 312 312 313 314 314 314 313 313 313 314 314 314 313 313 313 314 314 314 313 315 317 319 320 322 324 324 324 323 320 319 318 317 316 316 316 316 315 315 314 314 314 315 314 314 315 315 314 315 318 317 315 316 314 316 316 316 314 313
310 310 311 311 312 312 313 313 313 312 312 311 312 311 311 311 311 311 311 311 311 311 310 310 310 310 311 311 311 312 311 313 313 312 312 313 312 312 312 312 311 312 314 314 314 314 315 316 317 319 321 324 323 324 322 316 314 318 318 316 315 315 315 315 315 315 314 314 314 314 315 314 314 314 315 312 309 311 314 315 316 316 314 314 313
309 310 311 311 312 312 312 312 312 312 312 312 312 312 312 311 311 310 310 310 310 310 310 309 308 309 310 311 311 311 310 310 312 312 312 311 310 311 311 311 312 312 314 314 314 313 314 317 317 318 318 322 322 322 314 305 302 306 316 316 314 314 315 316 315 315 314 314 314 313 314 314 314 316 314 307 306 306 307 306 307 310 314 315 314
309 310 311 311 311 311 311 312 312 312 312 311 311 311 311 310 309 309 310 310 310 309 309 309 309 309 310 309 310 310 309 310 311 309 310 310 311 310 310 310 311 312 314 315 314 313 313 316 318 318 318 319 323 318 306 301 301 300 308 316 316 315 314 313 315 315 315 314 314 313 313 313 313 313 313 311 308 305 302 302 301 303 303 301 300
310 310 310 310 310 311 312 312 312 312 311 312 312 311 310 309 309 310 310 310 309 309 308 308 309 309 309 310 309 309 309 309 309 310 310 311 310 310 310 311 311 313 313 313 313 313 314 316 319 317 317 319 321 308 304 299 299 299 300 310 316 316 315 315 315 314 315 315 316 314 313 313 313 314 314 312 311 310 304 302 302 302 301 300 297
311 311 310 310 311 312 313 313 313 313 313 313 313 312 311 311 311 311 310 309 308 308 308 308 308 308 308 309 309 308 308 308 309 310 310 310 310 310 312 312 312 313 312 312 313 313 314 317 319 318 316 317 320 308 300 300 299 297 297 301 315 316 316 315 315 314 314 314 315 314 313 313 313 314 313 312 312 311 309 307 307 308 309 307 298
311 311 311 312 312 313 313 313 313 312 314 313 312 312 311 310 310 309 309 309 308 308 308 308 308 308 308 309 308 308 308 309 309 309 310 310 311 311 311 312 312 312 311 311 311 312 315 318 318 318 316 314 317 300 299 298 298 296 296 298 312 315 315 315 315 315 314 315 315 314 314 313 313 314 314 313 313 312 310 309 308 308 309 309 308
311 312 312 312 312 312 313 313 314 313 312 311 311 311 310 309 309 309 309 309 308 308 308 308 307 308 308 308 308 308 308 309 309 310 310 310 310 311 310 311 311 311 312 313 313 314 316 316 317 317 317 318 319 302 300 299 298 297 295 305 308 311 313 315 314 315 315 315 315 315 315 314 314 314 312 304 308 313 311 308 307 308 309 310 310
312 313 313 314 314 314 314 314 314 314 312 312 312 311 310 309 309 309 308 308 307 307 307 308 307 307 308 308 308 308 308 309 309 309 308 309 309 310 311 311 310 310 310 311 312 313 313 313 313 314 316 316 318 307 298 299 297 296 300 311 311 311 312 314 315 315 315 316 316 315 315 314 314 314 306 298 300 307 309 307 306 307 307 307 308
312 313 313 314 315 315 315 314 314 313 313 313 312 310 309 309 308 308 307 307 307 307 307 307 307 307 307 307 307 307 308 308 309 308 308 308 309 310 310 311 310 309 309 310 311 311 313 313 313 313 313 313 314 311 300 300 297 296 302 313 313 312 312 312 312 312 313 313 313 312 313 313 314 314 298 297 297 306 308 308 307 306 305 304 306
312 312 312 312 314 314 313 314 313 312 312 312 311 310 308 308 308 307 307 306 307 307 306 306 307 307 307 307 308 309 308 308 308 308 309 309 309 309 310 310 310 310 309 310 310 310 311 312 313 313 313 313 315 313 300 299 296 296 303 313 313 312 311 311 311 311 311 310 310 311 311 311 311 308 295 296 296 305 308 308 307 306 305 305 306
312 313 314 314 314 313 312 312 311 312 313 311 310 309 308 307 307 307 306 306 307 307 307 307 307 307 307 308 308 309 309 309 308 308 309 308 310 309 309 309 310 309 308 309 309 310 310 310 312 313 314 314 315 315 312 297 298 296 295 308 314 312 310 310 311 310 308 308 310 311 309 300 300 297 295 294 295 298 307 308 307 305 304 303 307
312 313 311 312 313 312 310 311 311 311 311 310 309 308 307 307 307 307 306 307 308 307 307 307 307 307 307 307 308 308 308 309 309 308 309 309 309 308 308 309 308 308 308 308 309 309 309 310 311 313 314 315 315 314 312 297 297 295 294 296 313 312 312 312 310 309 310 308 308 309 310 301 297 296 295 294 294 295 300 308 307 306 306 309 305
313 314 313 313 312 312 312 311 311 311 310 309 308 307 307 307 307 307 308 308 308 307 307 306 306 306 306 306 307 308 309 309 309 308 308 307 308 308 308 308 307 307 307 307 308 308 308 308 310 313 315 312 312 311 314 303 296 295 294 292 304 313 311 311 310 309 309 309 309 310 309 301 295 295 295 294 294 294 295 307 309 299 293 297 307
313 314 313 311 311 311 311 312 311 311 310 309 309 307 307 307 306 307 308 308 307 307 306 306 306 305 306 306 307 308 308 309 308 309 307 306 307 307 308 307 307 307 306 306 307 307 307 307 309 310 312 314 314 313 301 308 298 294 293 293 292 297 296 308 310 308 308 309 309 308 308 301 294 294 294 294 294 293 295 301 299 294 292 294 301
313 313 313 313 312 311 311 312 311 311 310 309 309 307 307 306 306 307 308 308 307 306 306 306 305 305 305 305 306 306 306 307 307 307 307 307 306 306 306 306 306 305 304 305 305 306 307 307 308 309 311 311 313 313 304 299 304 296 293 292 291 291 291 303 308 310 311 310 308 307 305 296 294 294 293 293 293 294 298 295 294 292 291 295 304
312 312 313 313 312 311 311 311 311 311 310 309 309 308 308 307 308 308 307 307 307 307 306 305 304 305 305 305 305 305 305 304 304 304 305 305 306 306 305 306 306 305 304 303 304 306 307 307 308 307 308 309 311 311 312 305 298 298 295 293 292 290 291 290 301 309 309 309 304 299 297 294 293 293 293 292 293 293 293 294 293 292 298 302 303
313 313 313 313 313 312 311 311 311 311 310 309 310 309 308 308 308 307 307 307 307 306 305 305 305 304 304 304 304 304 304 303 304 304 303 303 305 305 304 304 304 304 304 304 304 305 306 307 306 307 307 308 310 310 310 311 306 304 303 293 293 292 294 294 296 301 293 294 294 295 294 293 293 294 297 298 300 299 293 293 292 294 301 303 303
311 312 312 313 312 311 310 310 310 310 309 309 310 310 310 309 308 308 308 307 307 306 305 305 304 304 304 305 304 303 303 303 304 303 303 303 302 302 303 303 303 303 303 303 304 305 306 306 306 306 307 307 307 307 308 307 307 306 307 307 308 305 294 293 299 305 300 302 297 298 300 296 297 294 296 297 298 297 298 297 299 300 302 304 304
313 313 315 314 312 311 311 310 309 310 310 309 309 309 310 309 308 308 308 307 307 306 306 306 305 305 304 304 303 299 301 302 302 303 301 301 302 303 301 302 302 304 302 302 303 304 304 305 304 305 306 305 305 305 305 303 303 302 303 304 306 307 308 307 306 307 307 307 305 297 297 300 302 301 302 303 302 303 302 300 301 302 303 304 305
312 314 315 312 312 311 311 311 310 310 311 310 309 310 310 310 309 308 308 307 306 305 306 306 306 304 303 303 303 303 302 302 302 302 302 302 301 301 302 302 305 306 306 305 304 304 305 306 306 305 305 305 304 305 304 293 297 291 294 299 301 303 304 306 302 295 305 305 303 301 300 299 300 300 300 301 302 302 302 303 303 304 303 303 302
313 314 315 314 313 312 311 311 310 311 311 310 310 309 309 309 308 308 308 307 307 306 307 306 305 303 303 303 303 302 303 302 302 301 301 301 296 297 300 303 303 300 294 294 294 302 305 305 306 307 308 305 305 304 292 290 291 291 291 289 290 290 290 294 294 292 298 304 303 301 300 300 300 300 300 301 302 302 302 303 302 299 301 301 300
313 314 315 314 313 312 311 311 310 311 310 310 309 309 309 309 309 308 308 307 307 305 305 305 304 303 302 304 303 303 302 302 302 302 302 300 300 301 294 292 295 296 295 293 291 290 290 290 298 304 305 297 294 290 290 291 290 291 290 290 291 290 291 291 291 299 302 302 304 302 302 302 300 301 300 301 301 301 301 302 302 302 302 302 300
Wind_Speed
10 9 10 10 9 8 8 7 8 8 8 8 8 8 8 7 6 5 4 4 4 4 3 3 2 1 1 1 1 1 1 1 1 1 1 1 0 0 0 0 1 1 1 1 1 2 2 1 2 2 1 2 1 2 2 2 2 3 3 3 4 4 3 2 3 4 5 4 3 4 4 5 5 5 6 6 6 5 4 5 5 5 4 3 3
12 11 11 11 11 12 11 10 10 10 10 9 9 8 8 7 6 5 3 3 3 4 4 3 2 3 3 2 2 1 1 1 1 0 1 0 1 1 1 1 2 2 2 1 2 3 2 2 2 2 2 1 1 1 2 2 2 2 3 4 3 4 3 2 2 4 5 5 4 4 5 5 5 5 6 7 6 5 5 5 4 5 5 5 3
11 11 12 12 13 13 11 10 10 9 9 9 8 8 7 6 6 5 4 4 3 4 5 4 4 3 4 3 3 3 1 1 2 2 2 2 1 2 2 2 3 3 2 2 2 3 2 3 3 2 3 2 2 2 3 3 3 3 4 4 3 2 3 1 2 3 4 3 3 4 5 5 5 5 5 5 5 4 3 5 5 5 6 5 3
11 10 11 11 11 12 12 11 10 8 8 8 8 7 5 5 5 6 4 3 4 3 4 6 5 5 5 5 4 4 3 2 2 2 3 3 3 3 3 2 2 3 3 3 3 3 3 3 3 3 2 2 3 4 4 4 4 4 4 4 4 5 4 2 0 3 4 4 4 3 2 3 5 6 5 5 5 5 6 6 5 5 5 5 4
10 10 10 10 14 14 13 11 8 7 8 9 8 7 5 6 6 6 7 7 6 7 7 7 5 5 4 5 5 5 4 4 3 3 2 2 3 3 3 3 3 4 3 4 4 4 4 4 4 4 4 3 3 4 5 4 4 4 4 4 4 4 4 2 2 3 4 4 5 4 5 6 4 1 3 3 4 5 4 5 2 4 4 2 3
12 13 12 12 12 12 12 11 10 8 7 8 8 8 8 7 7 7 7 8 9 10 11 8 6 5 4 4 4 5 5 4 4 3 3 3 3 2 4 4 4 4 4 4 5 5 5 5 5 5 5 4 4 4 4 4 3 4 4 4 4 4 4 4 4 3 3 4 5 5 5 5 4 1 3 4 4 4 3 2 1 3 2 3 2
11 12 12 13 13 12 12 11 10 9 8 7 8 8 9 8 8 8 7 6 7 7 7 8 8 6 6 7 8 8 5 3 2 3 4 4 3 4 4 4 5 5 5 4 5 5 5 6 6 6 5 5 5 5 4 4 5 6 4 4 4 3 3 5 5 3 3 5 4 4 6 6 5 5 5 3 3 3 3 1 2 2 2 0 1
10 11 12 12 12 11 11 10 10 10 9 9 8 8 9 10 9 9 8 8 7 7 8 7 8 7 7 6 4 6 11 9 4 4 4 5 5 5 4 4 4 4 5 6 5 6 6 6 6 6 6 5 5 5 5 5 5 3 3 4 3 3 4 5 4 4 4 3 3 4 5 5 6 6 7 6 5 4 5 4 3 3 2 2 1
11 10 11 11 11 10 10 10 9 10 9 9 8 8 7 8 9 9 9 8 8 10 8 8 7 7 8 8 7 4 3 7 8 8 9 8 5 5 5 3 3 4 5 6 6 6 6 6 6 6 6 6 6 6 5 5 6 5 5 5 5 4 3 4 4 4 4 4 4 5 5 5 5 6 6 6 6 6 5 5 4 4 2 3 1
9 10 10 10 10 9 9 9 10 9 8 9 8 8 8 7 8 9 10 8 8 8 8 9 9 8 7 7 9 8 7 6 5 4 4 8 12 10 4 3 3 3 4 5 6 7 7 7 7 7 7 6 6 6 5 6 6 6 6 6 5 5 3 4 5 3 4 3 4 3 4 4 5 5 5 6 6 7 6 6 7 6 5 3 2
8 9 9 9 9 9 9 9 8 7 7 7 7 8 8 8 8 9 9 7 8 8 9 9 8 8 7 8 9 9 10 9 8 6 5 6 5 8 10 8 6 4 4 4 5 7 7 7 7 7 6 6 6 7 6 6 6 6 6 7 6 6 4 4 4 4 4 4 5 4 5 5 4 5 4 5 5 5 5 7 5 4 4 6 4
7 7 8 8 8 9 8 8 8 7 7 7 7 7 8 8 8 9 9 9 8 8 8 8 7 7 8 8 8 8 9 8 9 9 8 8 7 6 5 6 8 9 5 4 4 5 6 6 8 8 8 7 7 7 6 6 6 6 6 6 6 7 6 5 5 5 5 4 5 3 4 4 3 5 4 4 4 4 5 6 5 5 3 3 4
6 6 6 6 7 7 7 7 7 7 7 7 8 7 7 8 9 9 10 10 9 9 8 8 8 8 8 8 8 7 8 8 8 8 7 7 7 7 7 7 5 8 7 7 7 9 7 7 8 8 8 7 8 8 7 7 6 6 6 7 7 7 7 7 5 6 6 5 4 4 4 4 4 4 3 3 3 3 4 5 6 2 5 4 3
6 6 7 7 7 7 7 6 6 6 7 7 7 7 7 7 9 9 9 9 9 9 9 8 8 8 7 7 7 7 7 7 7 7 7 7 6 7 7 7 8 9 9 7 7 7 9 7 7 8 10 10 9 9 9 8 8 7 7 8 8 7 7 8 7 6 6 6 4 4 4 4 4 3 3 3 4 4 5 5 5 3 4 5 4
5 6 6 7 7 7 6 5 5 6 6 7 6 6 7 7 8 9 9 9 9 9 8 9 8 8 8 7 7 7 6 6 6 6 6 7 6 7 7 6 6 7 8 8 8 10 10 9 9 8 9 11 10 9 9 9 8 8 8 8 8 7 7 7 7 7 7 7 6 5 4 4 4 4 4 4 4 4 4 4 5 5 5 6 5
5 5 5 5 6 5 5 5 5 5 5 6 6 6 6 6 7 8 8 9 9 9 9 8 8 8 9 9 8 8 7 7 6 6 7 7 7 7 7 7 7 7 7 7 9 10 10 10 11 10 10 10 11 11 11 10 9 9 9 8 9 7 8 9 8 8 8 8 7 6 5 5 4 4 4 4 4 3 4 3 4 5 5 5 6
3 4 5 5 6 5 5 5 5 5 5 6 6 6 6 6 7 7 8 8 9 9 8 8 8 8 8 9 9 9 8 9 8 9 9 8 7 7 6 7 7 6 6 6 7 9 9 10 10 12 12 10 12 12 11 11 10 10 10 10 10 9 8 9 8 8 8 8 7 8 6 5 4 4 4 3 4 3 4 4 4 5 5 6 5
3 2 3 5 6 6 5 4 4 4 5 5 6 5 6 6 7 7 7 8 8 8 8 8 8 8 8 8 9 8 8 8 8 9 9 8 8 7 7 7 7 7 7 7 7 8 8 9 11 12 13 11 11 10 11 12 12 11 11 11 10 9 9 8 9 9 8 8 8 8 7 6 5 5 5 4 4 4 4 4 4 4 4 5 5
0 2 3 3 4 4 4 4 4 4 4 6 5 5 6 6 7 7 7 7 7 7 7 7 7 6 7 8 8 8 8 7 8 8 8 8 9 8 8 8 9 8 8 8 8 9 8 8 9 10 10 11 11 10 11 10 11 10 11 10 10 10 10 10 9 9 8 8 9 9 8 7 6 6 6 5 5 5 5 4 4 4 4 5 5
1 0 2 3 3 3 3 3 4 4 5 5 5 5 5 5 6 6 6 6 6 7 7 7 7 7 7 7 8 8 8 7 8 8 8 8 8 8 8 9 9 8 9 9 9 9 9 10 9 9 10 9 9 12 11 11 8 10 12 10 10 11 12 12 10 9 8 9 10 10 10 8 7 7 6 6 6 5 5 5 5 4 4 4 4
2 0 0 1 2 2 2 2 3 4 4 4 5 5 4 5 6 6 6 6 7 7 7 7 7 7 8 8 8 8 8 7 8 8 8 8 7 8 8 8 8 8 9 9 9 10 10 10 11 10 10 10 10 9 8 9 9 9 11 13 12 9 12 12 11 11 10 9 10 11 10 10 9 8 7 6 6 6 6 5 4 4 5 5 5
2 2 2 1 1 1 1 1 1 2 4 5 5 4 6 7 6 6 7 7 7 7 8 8 8 8 8 9 9 8 8 8 9 8 8 8 8 8 8 8 9 9 8 9 10 9 9 11 10 10 10 10 9 9 8 7 9 11 12 11 11 12 11 10 11 12 11 9 9 10 11 10 10 9 8 8 7 6 6 6 6 5 5 5 5
3 3 3 2 1 1 0 1 1 1 1 2 3 4 5 5 6 6 7 8 8 8 9 8 9 9 9 9 9 9 9 9 9 8 8 8 8 8 8 9 9 9 9 9 10 10 11 11 11 10 10 9 9 8 8 10 10 10 12 13 15 12 11 8 10 13 14 11 10 10 10 10 8 9 8 7 7 7 6 6 6 5 5 4 4
4 4 4 3 3 3 2 0 2 2 1 2 3 3 3 4 5 6 7 9 9 9 9 10 10 10 10 9 9 10 10 10 10 9 10 9 9 9 9 10 10 9 10 10 11 11 10 10 10 11 10 10 9 8 9 8 11 12 13 12 11 11 10 11 13 13 14 12 10 10 10 10 10 10 9 8 7 7 6 5 6 5 4 4 4
5 5 5 4 3 3 1 3 2 2 1 1 3 4 4 4 5 7 8 9 9 9 10 11 10 11 10 10 10 10 10 10 10 10 11 11 10 9 8 10 9 10 11 11 11 11 10 10 10 11 10 10 10 9 9 8 9 11 12 12 12 11 10 8 5 3 6 9 10 9 10 10 10 10 9 9 8 9 7 6 6 5 5 5 4
5 5 5 5 3 2 1 1 3 3 3 3 3 4 5 6 6 6 7 9 10 9 11 11 10 10 10 10 10 10 11 11 11 11 11 11 10 9 10 10 10 11 12 11 12 11 10 11 11 11 9 9 10 10 9 9 9 10 10 11 12 10 8 7 8 10 11 11 8 10 9 8 8 9 9 9 8 10 8 7 7 6 5 5 5
5 5 5 4 4 3 1 1 1 2 2 3 4 5 5 6 7 8 8 8 9 9 11 10 10 10 10 10 10 10 10 10 10 10 10 10 10 10 10 11 11 11 12 12 12 13 11 11 12 10 10 9 8 8 9 8 9 8 9 10 11 10 10 8 8 9 11 10 9 8 7 8 9 9 8 8 8 8 7 7 7 6 6 5 6
5 6 6 6 4 3 3 2 2 3 2 3 4 4 6 7 8 8 9 8 7 9 10 10 10 9 9 10 10 10 10 10 10 11 11 10 11 11 11 11 11 12 12 12 13 13 12 11 11 10 9 8 8 8 7 6 8 9 9 10 11 8 8 6 5 3 3 3 7 8 7 7 8 7 7 7 7 7 6 7 6 6 6 6 6
7 7 6 6 5 5 4 4 3 3 3 4 5 6 6 7 8 9 9 8 8 9 10 10 10 10 9 10 9 9 9 10 11 11 11 11 12 12 12 12 12 12 11 12 13 14 14 12 11 10 9 8 8 7 5 5 7 8 9 10 11 9 6 6 4 4 4 5 6 6 6 6 6 6 1 1 2 2 5 6 6 7 7 7 6
8 7 7 7 7 6 5 4 5 4 4 5 5 6 8 8 8 8 8 8 8 8 10 10 10 10 9 10 10 9 10 10 10 11 11 11 12 13 13 13 14 13 13 13 13 13 14 13 12 11 9 7 7 7 4 6 7 8 8 8 9 10 9 8 8 7 7 7 7 5 4 5 6 5 5 5 7 2 4 4 4 7 7 6 6
8 8 7 7 6 7 6 6 5 5 4 5 5 6 7 9 8 8 8 8 8 9 9 10 11 10 9 9 9 10 10 11 11 11 11 13 13 12 13 13 13 13 13 13 13 13 13 12 12 11 10 7 6 6 3 8 9 10 10 8 9 9 7 7 6 6 6 7 6 7 6 7 7 5 5 7 6 6 5 1 7 7 5 2 7
9 8 8 7 7 7 7 6 6 6 6 6 6 7 8 9 8 8 7 7 8 8 9 10 9 10 9 9 10 11 11 11 11 12 13 13 13 13 13 13 13 14 12 12 13 12 13 13 11 11 10 8 7 4 2 8 10 10 10 9 7 7 8 10 7 6 6 6 7 7 7 6 7 8 7 7 6 6 6 4 3 3 3 6 6
8 8 7 7 7 8 6 5 7 7 6 6 6 7 7 7 8 8 7 7 8 9 10 9 10 10 10 10 10 11 12 12 12 13 12 12 13 13 13 13 14 13 12 13 13 11 11 11 10 11 11 9 8 6 1 6 10 11 12 11 5 5 6 8 7 9 9 7 7 7 7 7 7 13 9 8 8 7 5 5 5 5 3 2 2
6 5 5 5 6 5 4 5 6 6 6 5 5 6 6 7 7 7 8 9 9 10 10 10 11 11 11 10 11 11 12 12 13 12 12 12 12 12 12 12 12 12 12 13 12 12 11 10 10 11 11 10 10 6 4 2 6 10 11 10 8 7 7 7 8 9 9 9 9 8 8 8 8 8 8 10 10 9 9 7 6 6 7 6 3
4 5 5 5 4 4 5 5 6 5 3 5 7 6 6 7 8 9 8 9 9 10 10 11 11 11 11 10 11 12 12 12 12 12 12 12 12 12 12 11 11 11 12 12 11 11 9 9 10 11 11 11 7 7 5 4 6 7 9 10 7 8 9 9 9 9 10 10 11 9 10 9 9 9 9 11 11 11 10 9 9 9 8 7 6
5 5 5 5 5 5 5 5 4 4 5 6 6 5 6 8 8 9 8 9 10 10 10 11 11 11 11 11 11 11 11 11 11 11 12 12 12 12 12 11 11 11 11 11 11 9 8 9 9 9 10 10 8 3 3 4 5 7 5 4 6 8 8 9 11 12 11 10 10 11 10 10 10 10 11 12 10 9 10 9 8 9 8 6 6
3 3 3 3 4 5 4 4 4 4 5 5 5 5 7 8 9 8 9 10 10 10 11 11 11 11 11 11 10 11 10 10 11 11 11 12 12 12 11 10 11 11 11 11 11 10 9 9 9 8 8 9 10 5 5 5 6 4 4 4 4 6 7 8 9 12 11 9 9 11 11 10 11 10 11 15 12 11 10 10 9 9 7 6 6
4 3 4 4 4 5 4 4 4 4 4 4 4 5 7 8 9 9 9 10 10 10 11 11 11 11 10 10 11 11 11 10 11 12 12 12 12 11 11 10 11 12 11 11 10 10 10 9 9 9 7 7 9 4 2 4 5 2 5 6 4 4 6 6 6 4 4 5 5 4 4 6 6 7 15 15 14 11 9 11 10 9 8 7 6
5 6 7 7 4 5 5 4 4 5 4 3 5 6 8 9 9 10 10 10 9 10 10 11 11 11 11 11 11 11 11 11 12 12 11 12 12 11 11 11 10 10 11 11 10 10 10 9 9 9 7 7 7 5 5 5 6 5 4 5 5 5 7 7 5 5 3 4 6 9 14 8 8 8 15 13 13 11 8 8 9 9 8 8 8
5 5 4 5 4 4 5 5 5 5 3 4 5 6 8 9 9 10 10 10 9 9 10 11 11 11 10 10 10 10 10 11 12 11 11 11 10 11 11 11 11 10 10 11 11 10 11 10 10 9 9 8 7 6 5 8 7 8 6 6 6 6 7 8 7 6 5 6 6 7 10 12 12 13 13 13 14 12 9 8 7 8 8 8 8
4 3 2 5 4 5 6 6 5 3 4 5 5 6 8 9 9 10 11 9 9 9 9 11 11 11 11 11 10 10 10 10 10 10 10 10 10 10 11 11 11 11 11 11 12 11 10 10 10 9 8 7 5 7 5 8 8 7 7 6 6 6 6 6 5 4 6 7 9 8 8 12 14 14 14 14 13 13 9 8 8 10 8 4 5
3 1 4 5 5 5 5 5 4 5 5 5 5 7 8 9 10 10 10 9 9 9 10 10 11 11 11 11 11 10 10 9 10 10 10 10 10 11 10 11 10 11 12 12 12 10 10 10 9 9 8 9 7 1 7 5 7 8 7 6 6 6 7 5 5 5 5 6 7 7 7 10 13 14 14 13 14 13 12 6 7 5 7 3 3
4 4 5 5 5 6 5 5 5 5 5 5 6 8 9 9 10 11 10 10 10 10 10 11 11 11 11 11 10 11 10 8 9 9 10 11 10 10 11 10 11 11 11 12 12 10 10 10 9 8 7 7 7 4 7 7 8 7 7 6 6 7 9 6 5 5 6 6 5 6 6 11 13 11 10 11 12 13 9 8 7 7 6 6 2
4 5 4 6 7 6 6 5 6 6 6 6 6 8 8 9 11 10 9 10 10 10 10 10 10 11 11 11 11 12 11 10 10 10 9 10 10 10 10 10 10 10 10 11 10 10 10 10 9 8 8 8 7 7 5 6 5 4 5 5 6 6 5 5 6 5 5 5 5 6 6 11 13 14 13 11 10 10 8 11 7 8 8 5 4
5 5 4 5 6 7 7 8 7 7 6 7 7 8 9 10 10 9 9 11 10 10 10 10 11 11 11 11 12 12 12 10 10 9 9 9 10 10 10 9 10 10 9 10 10 10 10 9 8 8 8 8 8 6 6 2 2 4 3 1 4 5 6 4 4 4 4 3 2 6 7 10 12 12 12 11 9 10 11 11 9 9 8 5 6
5 5 4 6 6 7 9 10 9 7 7 7 8 8 9 9 9 9 9 8 10 10 10 11 11 10 11 11 12 12 12 11 10 9 9 9 9 9 9 9 9 9 9 9 10 10 10 9 9 9 8 9 8 6 5 6 8 9 4 6 1 2 4 4 5 4 6 3 4 7 8 10 9 8 8 6 6 7 10 8 7 7 6 8 8
7 6 6 6 7 8 10 10 11 8 7 8 9 8 8 8 8 8 8 8 8 9 10 10 10 10 11 11 12 11 10 10 10 9 9 8 8 9 9 9 8 9 9 9 9 10 9 9 9 9 8 8 8 6 8 9 9 9 9 9 4 2 5 4 3 4 4 1 1 4 4 6 5 9 7 6 5 7 7 5 5 6 8 9 9
7 6 6 7 8 9 10 11 10 9 8 9 9 9 8 8 8 8 8 8 8 9 10 10 11 10 10 10 11 9 9 10 10 10 9 9 8 8 9 9 9 9 9 9 9 10 9 9 9 9 9 8 8 7 8 9 10 9 9 8 8 8 5 4 3 3 4 4 4 4 4 4 3 4 4 5 6 7 7 7 8 8 9 9 6
7 6 7 7 8 10 11 11 11 10 10 9 10 10 9 8 8 9 8 8 8 9 9 11 10 9 8 8 9 10 11 11 11 11 9 9 8 8 8 9 8 8 7 8 9 9 9 9 8 8 9 8 8 8 8 8 7 8 7 8 8 8 7 6 4 4 5 3 4 5 4 5 6 5 4 6 6 6 7 8 9 9 7 5 5
7 6 7 8 9 11 12 11 11 11 11 10 10 11 10 10 10 9 8 8 9 9 9 10 10 9 8 9 10 11 11 11 11 11 10 9 6 9 6 6 8 4 3 2 3 7 8 7 7 8 7 8 8 7 8 10 10 10 9 7 9 10 10 8 7 6 5 4 4 5 5 6 6 7 7 7 7 7 7 8 8 8 7 6 6
7 7 7 8 9 10 10 11 12 12 12 11 11 11 12 11 11 11 10 9 9 9 9 10 11 10 8 7 10 11 10 10 11 10 10 10 10 6 12 13 8 9 9 9 8 10 11 10 7 7 5 1 2 4 6 9 10 9 9 9 9 9 7 5 3 3 2 3 4 4 5 6 7 7 7 7 7 7 6 7 6 7 8 9 8
Wind_Direction
74 67 62 65 61 53 48 38 28 37 33 23 16 19 16 13 18 24 18 10 357 348 345 332 331 319 278 292 301 237 263 298 220 257 311 64 337 4 113 234 199 235 251 241 248 248 260 210 231 239 252 289 328 353 350 342 332 314 309 290 285 275 243 253 281 284 275 250 217 236 227 233 243 231 228 218 213 218 223 232 237 237 235 244 250
73 72 69 66 65 61 50 43 37 33 27 18 10 6 14 13 12 7 11 6 359 341 320 304 311 323 312 310 310 304 284 259 279 183 280 83 221 198 210 202 199 213 204 207 250 269 254 240 242 244 266 274 313 357 307 304 279 278 289 275 252 288 279 303 321 299 249 256 253 220 222 207 219 225 242 235 225 207 213 228 225 239 232 228 236
72 67 65 66 65 62 57 53 51 43 35 28 18 9 6 2 1 359 1 348 343 327 318 315 312 298 291 305 289 293 234 312 316 317 304 292 257 236 225 209 216 234 231 231 227 230 258 274 262 266 267 278 254 229 226 236 263 272 259 277 285 239 289 200 303 323 300 292 256 266 241 232 189 219 227 241 231 236 217 225 219 224 229 230 219
77 67 65 66 71 66 58 54 51 47 41 41 36 27 14 356 346 339 333 323 310 313 304 305 302 302 289 290 286 281 299 248 240 257 261 256 255 246 259 243 239 271 261 239 235 234 245 244 253 250 249 251 263 255 248 243 224 239 241 247 260 280 242 219 228 303 304 303 250 254 306 269 244 219 215 209 235 217 229 235 219 230 215 214 231
77 73 63 54 56 54 53 50 48 45 40 42 43 35 24 14 354 341 332 339 336 337 324 313 302 278 258 255 259 259 246 245 237 240 242 261 269 260 259 256 267 265 269 268 272 257 243 249 248 249 244 236 248 254 246 242 238 239 251 264 259 278 278 264 224 247 269 286 295 269 227 224 237 216 206 212 239 232 229 244 205 258 232 208 229
56 54 52 53 55 55 51 48 44 38 36 33 33 37 32 24 13 356 344 347 353 353 344 327 316 302 293 274 252 237 246 238 247 249 249 255 269 289 268 268 276 274 273 277 279 271 256 252 257 258 248 239 236 252 255 241 243 257 232 244 241 233 271 275 252 187 250 262 270 286 303 308 322 341 248 213 191 249 233 247 226 228 217 214 214
61 56 52 52 51 51 51 44 38 36 32 31 32 30 27 24 20 14 11 0 356 345 334 329 322 318 307 305 310 302 281 253 251 258 266 273 264 265 279 282 272 267 264 265 261 261 263 256 249 255 259 246 240 248 246 241 236 229 217 230 254 249 241 263 259 238 190 230 231 254 275 269 273 280 261 297 216 170 255 239 183 60 52 347 115
53 53 51 51 50 48 47 43 37 33 26 28 30 28 26 25 20 21 22 19 14 3 356 359 334 337 334 321 298 295 305 313 302 280 267 263 266 264 274 258 254 260 265 265 269 263 251 253 250 247 253 254 245 238 242 236 241 236 228 253 256 264 257 261 257 241 239 200 197 228 225 248 254 258 267 268 282 239 190 204 180 179 155 64 46
56 53 51 50 49 48 44 43 39 33 29 30 30 27 27 26 26 25 28 26 25 19 12 13 4 351 344 339 334 331 275 266 303 319 317 304 285 280 277 268 257 248 255 264 266 270 260 249 249 245 245 252 243 242 240 236 229 235 216 228 235 241 245 250 257 241 231 228 194 219 234 238 230 228 258 265 254 257 240 207 209 140 227 130 118
67 64 57 53 50 50 47 43 40 31 28 28 30 33 31 28 30 30 29 29 26 23 19 19 12 357 350 344 335 329 331 331 336 336 313 312 311 309 286 279 280 244 238 251 262 269 263 256 248 242 243 245 251 256 239 231 223 222 219 225 227 238 232 230 237 247 236 253 234 229 216 221 250 247 230 244 255 263 268 246 204 205 216 140 138
60 64 61 57 52 45 40 40 36 33 27 27 26 28 31 31 26 32 31 29 25 24 22 24 26 19 11 355 341 329 326 325 323 328 335 310 310 304 318 313 308 306 288 268 261 269 264 260 259 259 244 241 246 250 243 234 223 220 217 217 221 225 224 222 229 236 239 225 234 227 237 226 236 236 233 240 259 263 257 264 259 215 262 143 168
60 60 62 56 50 41 35 35 33 29 25 23 23 23 28 31 28 30 28 25 25 25 24 23 22 18 14 9 3 351 345 337 329 326 328 320 317 313 303 295 304 298 305 284 275 270 268 265 259 255 254 245 243 246 246 236 231 221 219 215 217 215 221 217 219 218 226 222 219 234 244 271 248 249 245 253 258 262 268 270 264 246 233 266 115
65 67 63 57 45 37 32 32 35 28 24 23 20 16 20 25 23 25 28 19 20 21 21 20 18 15 9 6 4 357 354 347 342 339 336 330 329 325 317 309 298 278 297 306 306 303 285 264 265 258 251 243 240 251 247 242 240 233 229 221 222 213 212 215 215 216 216 231 217 218 244 230 234 234 255 244 238 260 271 267 268 258 248 240 176
73 60 57 47 35 30 30 34 34 30 24 19 17 15 18 21 21 24 29 23 20 19 18 16 18 12 8 6 359 354 351 344 341 334 337 327 323 316 315 317 317 306 305 305 300 286 284 291 284 287 277 261 246 243 247 247 237 234 231 229 227 220 219 213 223 216 215 227 245 242 222 233 233 240 225 237 230 224 232 242 260 258 263 258 182
68 64 51 45 38 30 37 35 33 33 22 14 12 13 15 21 21 26 29 29 25 21 21 18 14 15 14 9 4 358 351 344 338 336 328 323 314 311 308 307 299 307 310 305 299 287 287 287 284 273 264 270 261 248 245 243 236 233 237 229 229 226 221 216 221 216 213 215 220 240 242 234 227 216 219 228 232 233 235 231 241 234 215 245 248
66 68 63 50 44 37 46 41 30 27 26 17 14 17 17 20 25 26 28 27 26 24 26 23 20 20 16 17 12 6 358 348 345 340 333 321 314 311 310 306 304 302 297 293 298 295 288 281 278 268 265 264 264 252 243 240 236 233 236 233 227 223 222 218 220 216 217 216 216 221 236 231 207 222 216 212 240 230 235 244 236 248 259 231 216
58 51 47 32 40 36 40 39 37 19 22 27 19 19 19 11 17 24 22 23 21 22 21 20 20 20 20 14 10 6 1 356 349 342 338 331 320 312 303 300 296 284 287 291 290 289 291 288 279 274 267 257 255 257 251 243 239 234 235 234 232 227 222 221 218 218 212 212 213 210 218 224 208 212 230 199 215 226 231 227 238 238 241 264 250
58 62 56 39 28 31 20 33 37 32 17 35 26 12 34 10 18 12 17 13 17 13 13 13 9 11 9 7 5 2 358 357 353 347 342 337 334 327 321 316 315 312 304 301 286 275 280 289 284 278 271 265 264 261 257 252 246 239 234 237 232 229 225 223 220 215 213 208 209 204 209 214 203 202 206 209 201 211 229 220 230 240 241 251 255
110 28 29 35 35 28 32 15 30 31 37 25 26 24 25 16 18 15 10 11 10 11 3 6 3 2 1 358 358 356 356 353 354 349 343 341 341 337 331 326 320 319 312 304 301 296 291 283 281 281 277 272 265 260 254 252 247 243 234 236 236 231 228 226 221 216 210 208 205 204 203 208 194 199 200 200 206 204 212 220 216 236 235 241 262
264 87 28 36 34 24 38 10 10 16 24 23 26 11 16 15 18 14 11 10 9 4 357 359 356 354 349 347 348 345 349 344 348 347 341 344 343 340 337 331 327 317 315 309 303 298 291 286 283 279 279 273 266 264 263 257 246 246 242 232 237 236 233 233 230 218 216 207 206 204 201 202 189 193 195 199 203 208 215 225 208 212 225 227 240
231 309 101 114 67 22 46 8 9 3 27 16 16 359 19 10 10 8 360 5 359 356 349 349 339 341 333 339 335 334 335 336 336 339 332 337 340 335 336 331 325 322 319 312 305 299 297 293 289 284 279 277 272 261 259 265 272 255 242 240 228 219 236 236 233 230 223 217 210 208 199 198 186 195 191 192 203 200 201 220 222 209 219 203 222
204 207 195 148 107 57 318 55 354 27 12 5 9 359 5 4 1 355 354 0 349 346 342 336 335 327 327 327 327 322 329 329 326 325 327 328 332 333 331 328 324 321 319 316 311 308 300 296 292 289 284 275 275 273 257 245 242 247 246 239 229 220 217 238 244 236 227 222 217 215 203 191 188 195 192 194 191 198 193 203 202 214 202 213 210
183 204 181 198 133 227 131 344 354 23 10 355 349 354 354 349 346 349 348 348 340 335 335 329 327 324 322 321 320 321 325 324 320 317 318 323 323 326 328 327 326 325 320 317 315 310 304 298 295 292 286 283 275 270 260 257 255 252 248 242 241 221 196 202 248 242 237 225 220 217 209 189 184 193 189 203 181 192 199 203 200 203 211 204 202
204 184 186 193 183 193 222 216 325 23 348 348 320 330 346 344 343 342 338 336 328 329 328 327 323 319 317 316 318 319 319 321 321 319 314 317 318 318 323 323 327 326 322 321 316 313 310 303 296 293 288 285 283 273 265 260 264 259 256 257 244 224 208 200 215 228 226 226 216 216 213 190 186 190 188 194 182 187 196 206 203 197 209 200 217
198 190 192 198 209 243 319 5 344 354 347 349 318 335 333 335 335 338 334 330 327 326 324 323 321 318 317 316 316 316 316 318 319 319 315 314 315 315 318 321 322 326 327 321 315 314 311 305 301 298 294 288 283 282 279 265 255 254 254 250 243 226 203 191 213 227 254 241 223 218 216 199 190 191 188 192 186 185 190 201 199 198 199 196 196
199 196 197 209 220 237 228 333 340 3 345 345 319 324 330 334 340 329 319 328 329 328 321 319 318 318 318 320 319 317 316 316 317 318 318 316 312 313 318 313 323 324 325 323 317 313 313 312 307 305 301 293 291 289 281 277 269 263 260 255 242 213 193 181 195 204 213 224 215 214 216 211 206 201 191 192 187 185 194 194 197 203 197 186 192
204 206 210 218 216 238 257 239 327 323 338 322 326 324 327 334 331 326 327 328 327 324 321 317 318 316 315 320 322 320 318 313 314 316 315 314 317 318 315 319 321 320 320 322 322 316 312 312 310 311 302 299 297 292 291 290 288 278 262 252 246 213 189 195 193 202 216 213 213 215 217 203 209 206 201 193 190 188 194 197 194 202 206 187 189
214 216 221 225 234 240 242 259 301 316 327 304 308 317 325 327 324 325 332 329 326 322 319 319 317 315 314 319 322 320 319 316 315 313 316 317 317 316 319 317 318 317 319 321 323 318 311 306 311 314 309 301 291 286 287 291 283 274 263 251 237 202 192 179 166 163 167 192 222 219 223 211 209 208 208 199 197 194 192 197 194 198 199 194 199
227 227 230 237 239 236 245 259 270 279 277 285 304 322 318 317 320 330 330 329 326 321 321 321 320 314 320 316 313 319 314 315 315 317 316 319 317 315 317 318 315 314 315 318 321 320 311 306 308 312 313 309 302 293 287 275 277 266 257 248 235 202 182 180 181 196 208 210 223 217 217 211 209 229 267 315 193 237 201 197 196 196 194 196 205
239 233 228 231 239 242 241 253 268 271 285 300 311 309 321 323 326 332 329 334 324 322 320 320 316 318 318 317 317 316 318 317 314 318 321 318 315 317 318 314 313 316 317 316 318 317 312 305 305 310 315 314 307 301 287 258 251 271 268 246 234 213 200 191 188 189 205 210 216 213 214 220 215 224 125 109 105 113 302 332 222 190 199 199 205
251 251 249 239 234 239 243 252 257 261 275 292 301 307 309 318 329 327 331 327 325 324 320 320 318 320 318 316 320 319 317 317 324 315 316 316 320 318 313 312 314 317 317 317 316 316 316 310 304 307 313 311 302 305 299 239 226 231 252 249 226 212 206 204 198 188 199 199 206 207 204 211 218 191 166 154 147 158 213 105 10 27 15 236 209
263 263 256 249 241 240 246 257 267 269 274 281 293 303 317 323 329 324 325 323 322 320 323 321 324 320 316 321 321 318 318 322 318 320 321 320 316 315 315 318 319 317 319 316 312 316 318 313 307 307 311 317 309 50 256 242 234 221 224 233 221 215 213 218 218 218 217 208 203 201 199 200 205 206 191 162 169 172 162 134 99 83 71 28 11
264 265 261 251 251 264 256 257 253 265 280 286 289 300 315 320 322 321 315 314 317 320 324 325 327 325 319 321 321 320 321 320 322 322 319 317 318 318 322 322 318 319 316 315 317 316 315 314 309 308 312 316 312 99 217 238 247 233 222 223 213 209 210 211 215 220 220 212 203 199 192 199 202 198 196 186 183 169 151 140 129 122 93 102 335
262 255 253 258 257 259 258 249 261 275 278 295 293 296 306 310 304 303 315 321 320 322 322 320 327 325 322 323 322 322 321 322 322 321 321 318 318 323 322 318 317 318 318 316 317 317 316 318 316 312 314 316 316 72 36 301 261 244 236 226 227 219 215 214 210 215 216 218 213 200 194 193 193 186 192 201 191 177 168 165 176 195 202 167 152
246 234 241 248 262 262 251 251 258 269 261 260 286 309 311 310 319 318 321 320 321 323 322 323 327 324 319 323 322 322 322 323 320 320 321 318 323 323 320 320 318 318 318 319 320 321 326 321 318 315 315 315 336 72 17 345 315 271 239 232 242 236 225 224 222 219 216 215 210 198 199 199 195 194 197 201 198 179 175 182 191 200 211 182 192
259 246 238 252 253 257 261 266 257 236 250 282 308 314 310 314 318 319 322 323 325 324 323 329 329 323 324 325 322 323 323 323 323 324 322 325 327 323 320 320 318 317 318 319 325 332 331 322 316 315 312 313 313 54 27 359 317 299 283 232 232 240 243 235 230 224 216 211 208 203 199 198 185 201 179 166 179 172 175 180 192 207 212 198 199
244 245 250 245 261 259 263 252 235 254 287 304 316 316 312 313 314 317 323 325 326 325 329 331 326 328 330 329 326 324 326 325 328 323 325 328 323 319 319 324 318 319 319 319 322 319 318 316 317 317 316 313 318 14 35 351 344 309 287 272 242 241 237 239 237 239 229 220 213 200 188 195 180 191 152 161 161 171 177 181 192 204 209 209 190
252 225 235 237 247 266 245 234 239 244 271 289 297 304 306 304 312 321 325 326 329 332 335 333 329 330 329 326 326 328 329 330 325 326 328 323 319 317 319 321 319 320 319 318 316 314 311 312 312 314 322 312 306 323 61 348 354 336 287 299 281 256 253 250 248 220 199 214 225 166 182 194 172 151 157 164 166 177 189 191 195 202 206 210 210
279 282 287 289 264 251 252 221 234 261 274 289 302 304 300 311 317 325 328 327 332 337 333 332 328 329 327 326 328 329 327 328 325 327 325 322 322 321 318 318 318 317 316 315 316 311 312 309 308 304 297 282 296 314 103 23 359 343 300 288 271 273 268 254 239 223 180 169 187 189 196 177 179 152 158 162 169 178 187 187 197 204 208 210 211
294 294 286 287 273 232 235 247 253 263 275 288 296 300 306 308 319 324 327 329 336 334 330 328 328 327 325 327 331 328 329 326 324 324 325 322 319 319 324 321 319 319 321 320 316 314 313 310 308 304 302 300 306 312 2 35 2 338 309 294 290 272 260 264 248 228 204 197 184 186 180 170 164 154 164 166 176 188 190 183 182 205 215 219 210
316 310 269 273 255 262 276 272 283 283 292 299 301 302 307 314 319 319 326 332 331 332 333 329 328 328 331 334 331 330 329 323 321 323 322 320 320 323 322 322 320 324 327 323 318 313 309 308 309 311 308 309 317 320 342 53 3 340 326 285 283 289 287 277 252 220 226 212 202 194 187 176 171 166 167 167 180 193 194 189 194 208 212 250 207
293 290 254 265 277 264 259 265 272 275 281 287 292 301 305 315 318 321 328 327 331 331 324 329 330 329 331 331 331 330 324 320 321 321 320 319 321 321 322 322 321 324 324 323 323 318 315 313 315 315 313 315 316 317 318 36 36 342 327 296 285 313 355 305 282 219 214 219 209 198 190 182 179 169 168 174 184 192 199 204 211 173 92 87 194
260 245 231 251 266 262 259 263 266 266 281 291 296 295 300 310 317 325 325 327 325 320 327 331 332 328 331 332 330 328 322 320 319 320 317 316 317 320 321 319 322 325 326 327 328 328 321 321 323 322 326 332 338 348 84 357 12 345 325 301 290 294 329 308 283 258 235 220 205 200 191 168 181 178 178 185 190 193 188 206 216 158 133 89 102
278 279 275 228 256 269 272 264 265 269 275 284 282 285 300 309 314 325 322 316 313 321 324 325 326 326 331 330 330 329 330 323 324 321 313 313 317 320 319 322 326 326 330 331 334 334 333 333 333 335 331 331 339 338 82 83 353 351 315 312 304 299 298 294 307 289 285 228 204 207 196 169 181 180 180 183 194 192 198 205 191 162 139 149 199
289 292 265 245 260 267 265 266 261 264 272 278 274 278 291 300 313 317 316 318 320 315 315 317 322 328 328 327 330 330 330 332 326 319 316 316 316 319 317 324 323 323 329 333 334 337 336 336 336 334 333 331 336 342 336 67 212 238 232 325 305 300 304 299 286 263 285 314 193 182 182 178 186 184 181 182 187 189 198 201 191 165 158 182 202
276 272 256 247 252 256 259 264 268 265 267 267 272 275 280 294 308 316 316 308 314 314 309 310 315 316 319 321 327 328 334 331 322 322 321 318 318 318 318 322 320 325 331 333 334 337 337 336 335 335 335 332 329 325 333 357 354 347 342 165 194 246 279 280 279 310 3 77 144 173 178 180 173 169 159 172 185 192 204 198 180 175 194 205 205
272 279 257 239 244 252 256 257 260 260 257 264 271 272 272 284 299 309 311 310 304 303 302 301 303 312 314 317 320 332 330 319 327 330 324 324 323 324 321 316 323 329 331 333 337 337 335 336 333 333 333 334 326 339 8 2 352 350 345 338 275 188 164 216 236 233 199 170 173 189 165 159 160 172 180 156 166 161 174 179 185 196 215 217 208
274 275 237 246 251 257 262 260 261 263 260 268 276 278 282 289 298 307 307 301 295 294 296 298 303 307 303 311 318 320 309 324 328 328 324 326 325 329 324 320 326 329 329 332 335 334 333 331 331 330 329 330 329 357 16 2 353 345 336 330 328 318 320 321 308 273 244 211 153 96 101 121 127 153 198 187 192 186 184 186 199 203 213 219 214
276 258 230 249 259 260 259 261 263 266 266 266 272 278 279 278 285 293 295 293 292 291 286 292 301 301 299 306 308 317 321 322 325 324 329 322 329 324 320 320 321 330 333 328 324 320 322 329 327 322 324 321 325 353 14 2 337 327 320 327 324 325 328 323 4 5 305 183 148 150 151 148 155 170 189 197 191 191 193 198 203 210 211 203 200
276 266 240 243 250 255 262 262 263 268 271 268 274 278 280 278 293 300 295 289 288 285 291 303 309 310 305 303 305 313 316 318 321 324 326 325 301 227 261 303 321 16 123 268 247 286 311 319 307 304 316 319 325 353 358 341 334 335 334 322 307 290 282 271 305 312 291 252 203 184 181 184 183 175 179 192 202 199 195 193 195 196 203 205 206
279 265 250 245 253 256 258 256 258 266 268 270 270 275 278 278 282 293 294 281 290 295 296 304 313 312 315 309 299 301 309 312 315 318 325 326 326 307 207 226 241 262 278 270 251 252 265 264 270 289 307 171 315 335 334 334 336 339 337 340 346 348 328 286 244 265 235 265 275 234 209 202 195 199 206 201 196 197 199 196 206 202 212 210 200